When you browse on this site, cookies collect data to enhance your experience and personalize the content and advertising you see.
Visit our Privacy Policy to learn more. By continuing to use the site, you agree to this use of cookies and data.
  • In Schweiz
  • Länderverzeichnis
  • Für 7 Tage
  • Wassertemperatur
  • Wetterkarte
  • Widgets
  • user-avatar
    Anmelden

    Stündliche Wetter Cambridge

    Heute, 13 Dezember, Freitag

    Zeit Temperatur Niederschläge Wind Luftdruck Luftfeuchtigkeit
    00:00 +5°C° 0 mm 4 m/S 726 mmHg 94%
    01:00 +5°C° 1.2 mm 3 m/S 726 mmHg 95%
    02:00 +6°C° 1.2 mm 2 m/S 726 mmHg 96%
    03:00 +6°C° 1.2 mm 2 m/S 726 mmHg 97%
    04:00 +5°C° 0.8 mm 3 m/S 726 mmHg 95%
    05:00 +5°C° 0.8 mm 4 m/S 727 mmHg 93%
    06:00 +4°C° 0 mm 6 m/S 728 mmHg 91%
    07:00 +4°C° 0.3 mm 6 m/S 729 mmHg 89%
    08:00 +4°C° 0.3 mm 7 m/S 730 mmHg 87%
    09:00 +4°C° 0.3 mm 7 m/S 731 mmHg 85%
    10:00 +5°C° 0 mm 7 m/S 732 mmHg 83%
    11:00 +5°C° 0 mm 8 m/S 732 mmHg 81%
    12:00 +5°C° 0 mm 6 m/S 733 mmHg 79%
    13:00 +5°C° 0 mm 7 m/S 734 mmHg 78%
    14:00 +5°C° 0 mm 7 m/S 734 mmHg 77%
    15:00 +5°C° 0 mm 7 m/S 734 mmHg 76%
    16:00 +4°C° 0 mm 7 m/S 734 mmHg 77%
    17:00 +4°C° 0 mm 7 m/S 735 mmHg 78%
    18:00 +3°C° 0 mm 6 m/S 735 mmHg 78%
    19:00 +3°C° 0 mm 6 m/S 734 mmHg 79%
    20:00 +3°C° 0 mm 5 m/S 734 mmHg 80%
    21:00 +3°C° 0 mm 4 m/S 734 mmHg 82%
    22:00 +3°C° 0.1 mm 4 m/S 733 mmHg 84%
    23:00 +4°C° 0.1 mm 4 m/S 733 mmHg 87%

    Morgen, 14 Dezember, Samstag

    Zeit Temperatur Niederschläge Wind Luftdruck Luftfeuchtigkeit
    00:00 +4°C° 0.1 mm 4 m/S 733 mmHg 89%
    01:00 +2°C° 0 mm 5 m/S 734 mmHg 89%
    02:00 +2°C° 0 mm 6 m/S 734 mmHg 89%
    03:00 +2°C° 0 mm 7 m/S 735 mmHg 89%
    04:00 +2°C° 0.2 mm 7 m/S 735 mmHg 85%
    05:00 +1°C° 0.2 mm 8 m/S 736 mmHg 81%
    06:00 +1°C° 0.2 mm 8 m/S 737 mmHg 77%
    07:00 +1°C° 0 mm 8 m/S 738 mmHg 75%
    08:00 +1°C° 0 mm 8 m/S 738 mmHg 73%
    09:00 +2°C° 0 mm 7 m/S 739 mmHg 71%
    10:00 +1°C° 0.1 mm 8 m/S 739 mmHg 76%
    11:00 +1°C° 0.1 mm 8 m/S 740 mmHg 81%
    12:00 +2°C° 0.1 mm 8 m/S 740 mmHg 86%
    13:00 +1°C° 0.3 mm 8 m/S 741 mmHg 80%
    14:00 +2°C° 0.3 mm 7 m/S 741 mmHg 74%
    15:00 +2°C° 0.3 mm 6 m/S 742 mmHg 68%
    16:00 +2°C° 0 mm 6 m/S 742 mmHg 71%
    17:00 +1°C° 0 mm 6 m/S 741 mmHg 73%
    18:00 +1°C° 0 mm 6 m/S 741 mmHg 76%
    19:00 +2°C° 0.2 mm 7 m/S 740 mmHg 79%
    20:00 +2°C° 0.2 mm 8 m/S 739 mmHg 81%
    21:00 +3°C° 0.2 mm 10 m/S 738 mmHg 84%
    22:00 +4°C° 1 mm 8 m/S 738 mmHg 84%
    23:00 +4°C° 1 mm 7 m/S 737 mmHg 84%

    übermorgen, 15 Dezember, Sonntag

    Zeit Temperatur Niederschläge Wind Luftdruck Luftfeuchtigkeit
    00:00 +4°C° 1 mm 6 m/S 737 mmHg 85%
    01:00 +4°C° 0.3 mm 7 m/S 737 mmHg 81%
    02:00 +3°C° 0.3 mm 7 m/S 737 mmHg 78%
    03:00 +2°C° 0.3 mm 8 m/S 738 mmHg 75%
    04:00 +1°C° 0 mm 8 m/S 739 mmHg 75%
    05:00 +1°C° 0 mm 8 m/S 740 mmHg 76%
    06:00 +1°C° 0 mm 8 m/S 741 mmHg 76%
    07:00 0°C° 0 mm 7 m/S 742 mmHg 80%
    08:00 +1°C° 0 mm 6 m/S 744 mmHg 83%
    09:00 +1°C° 0 mm 6 m/S 745 mmHg 86%
    10:00 +2°C° 0 mm 6 m/S 745 mmHg 80%
    11:00 +3°C° 0 mm 6 m/S 746 mmHg 74%
    12:00 +4°C° 0 mm 7 m/S 746 mmHg 68%
    13:00 +4°C° 0 mm 7 m/S 746 mmHg 70%
    14:00 +5°C° 0 mm 7 m/S 746 mmHg 72%
    15:00 +5°C° 0 mm 7 m/S 746 mmHg 74%
    16:00 +4°C° 0.1 mm 7 m/S 746 mmHg 77%
    17:00 +4°C° 0.1 mm 6 m/S 746 mmHg 79%
    18:00 +4°C° 0.1 mm 6 m/S 746 mmHg 81%
    19:00 +4°C° 0 mm 6 m/S 746 mmHg 81%
    20:00 +4°C° 0 mm 6 m/S 746 mmHg 81%
    21:00 +4°C° 0 mm 6 m/S 747 mmHg 82%
    22:00 +4°C° 0.9 mm 6 m/S 746 mmHg 83%
    23:00 +4°C° 0.9 mm 7 m/S 746 mmHg 85%

    16 Dezember, Montag

    Zeit Temperatur Niederschläge Wind Luftdruck Luftfeuchtigkeit
    00:00 +5°C° 0.9 mm 7 m/S 746 mmHg 87%
    01:00 +4°C° 0.3 mm 6 m/S 746 mmHg 86%
    02:00 +4°C° 0.3 mm 6 m/S 746 mmHg 85%
    03:00 +4°C° 0.3 mm 6 m/S 746 mmHg 85%
    04:00 +5°C° 0 mm 5 m/S 746 mmHg 85%
    05:00 +5°C° 0 mm 5 m/S 746 mmHg 85%
    06:00 +5°C° 0 mm 5 m/S 747 mmHg 85%
    07:00 +5°C° 0 mm 5 m/S 747 mmHg 85%
    08:00 +4°C° 0 mm 4 m/S 747 mmHg 85%
    09:00 +4°C° 0 mm 4 m/S 748 mmHg 84%
    10:00 +5°C° 0 mm 4 m/S 748 mmHg 82%
    11:00 +6°C° 0 mm 4 m/S 748 mmHg 80%
    12:00 +6°C° 0 mm 4 m/S 748 mmHg 78%
    13:00 +7°C° 0 mm 3 m/S 748 mmHg 79%
    14:00 +7°C° 0 mm 2 m/S 748 mmHg 81%
    15:00 +6°C° 0 mm 2 m/S 748 mmHg 83%
    16:00 +7°C° 0 mm 1 m/S 748 mmHg 83%
    17:00 +6°C° 0 mm 1 m/S 748 mmHg 84%
    18:00 +6°C° 0 mm 1 m/S 748 mmHg 85%
    19:00 +6°C° 0 mm 1 m/S 748 mmHg 85%
    20:00 +6°C° 0 mm 1 m/S 748 mmHg 85%
    21:00 +6°C° 0 mm 1 m/S 748 mmHg 85%
    22:00 +6°C° 0.1 mm 1 m/S 747 mmHg 87%
    23:00 +5°C° 0.1 mm 2 m/S 747 mmHg 88%

    17 Dezember, Dienstag

    Zeit Temperatur Niederschläge Wind Luftdruck Luftfeuchtigkeit
    00:00 +5°C° 0.1 mm 2 m/S 747 mmHg 90%
    01:00 +4°C° 1.1 mm 3 m/S 746 mmHg 91%
    02:00 +4°C° 1.1 mm 3 m/S 746 mmHg 93%
    03:00 +4°C° 1.1 mm 3 m/S 746 mmHg 95%
    04:00 +4°C° 0.8 mm 4 m/S 745 mmHg 94%
    05:00 +4°C° 0.8 mm 4 m/S 745 mmHg 93%
    06:00 +4°C° 0.8 mm 4 m/S 745 mmHg 92%
    07:00 +4°C° 0.1 mm 4 m/S 745 mmHg 91%
    08:00 +4°C° 0.1 mm 4 m/S 746 mmHg 91%
    09:00 +4°C° 0.1 mm 4 m/S 746 mmHg 90%
    10:00 +4°C° 0.1 mm 4 m/S 747 mmHg 88%
    11:00 +4°C° 0.1 mm 4 m/S 747 mmHg 86%
    12:00 +4°C° 0.1 mm 4 m/S 748 mmHg 84%
    13:00 +4°C° 0 mm 3 m/S 748 mmHg 85%
    14:00 +4°C° 0 mm 3 m/S 749 mmHg 85%
    15:00 +4°C° 0 mm 2 m/S 749 mmHg 86%
    16:00 +4°C° 0 mm 2 m/S 750 mmHg 88%
    17:00 +3°C° 0 mm 2 m/S 751 mmHg 89%
    18:00 +3°C° 0 mm 2 m/S 751 mmHg 91%
    19:00 +1°C° 0 mm 3 m/S 752 mmHg 91%
    20:00 +1°C° 0 mm 3 m/S 752 mmHg 91%
    21:00 +1°C° 0 mm 3 m/S 753 mmHg 91%
    22:00 +1°C° 0 mm 3 m/S 753 mmHg 91%
    23:00 +1°C° 0 mm 3 m/S 754 mmHg 91%

    18 Dezember, Mittwoch

    Zeit Temperatur Niederschläge Wind Luftdruck Luftfeuchtigkeit
    00:00 +1°C° 0 mm 3 m/S 754 mmHg 91%
    01:00 +1°C° 0 mm 3 m/S 754 mmHg 91%
    02:00 +1°C° 0 mm 3 m/S 754 mmHg 91%
    03:00 +2°C° 0 mm 2 m/S 754 mmHg 91%
    04:00 +2°C° 0 mm 2 m/S 755 mmHg 90%
    05:00 +2°C° 0 mm 2 m/S 755 mmHg 89%
    06:00 +2°C° 0 mm 2 m/S 755 mmHg 89%
    07:00 +2°C° 0 mm 2 m/S 755 mmHg 89%
    08:00 +3°C° 0 mm 1 m/S 755 mmHg 89%
    09:00 +3°C° 0 mm 1 m/S 755 mmHg 90%
    10:00 +4°C° 0 mm 1 m/S 756 mmHg 89%
    11:00 +5°C° 0 mm 1 m/S 756 mmHg 87%
    12:00 +6°C° 0 mm 1 m/S 756 mmHg 86%
    13:00 +6°C° 0 mm 1 m/S 756 mmHg 88%
    14:00 +6°C° 0 mm 1 m/S 755 mmHg 90%
    15:00 +5°C° 0 mm 1 m/S 755 mmHg 91%
    16:00 +5°C° 0 mm 1 m/S 755 mmHg 91%
    17:00 +3°C° 0 mm 2 m/S 755 mmHg 91%
    18:00 +3°C° 0 mm 2 m/S 755 mmHg 91%
    19:00 +3°C° 0 mm 2 m/S 755 mmHg 91%
    20:00 +2°C° 0 mm 3 m/S 755 mmHg 92%
    21:00 +2°C° 0 mm 3 m/S 755 mmHg 93%
    22:00 +2°C° 0 mm 3 m/S 754 mmHg 92%
    23:00 +1°C° 0 mm 4 m/S 754 mmHg 92%
    Mehr zeigen